This demonstration page uses our WeatherBlox Daily Observations layout. Learn more.

Left ArrowRight Arrow

Hourly Observations for October 4, 2015

Temp ( °F °C ) Dew Point ( °F °C ) Humidity (%) Winds ( mph kmh ) Pressure ( in mb ) Visibility ( mi km ) Precip ( " mm )
12:51 am 00:51 Clear 71 21.7 47 8.3 42 42 N 7 11 29.59 1002 10 16 0.00 0.00
1:51 am 01:51 Clear 69 20.6 48 8.9 47 47 E 8 13 29.61 1003 10 16 0.00 0.00
2:51 am 02:51 Clear 69 20.6 50 10 51 51 ENE 5 7 29.62 1003 10 16 0.00 0.00
3:51 am 03:51 Clear 68 20 51 10.6 55 55 ESE 5 7 29.64 1004 10 16 0.00 0.00
4:51 am 04:51 Partly Cloudy 66 18.9 52 11.1 61 61 ENE 7 11 29.66 1004 10 16 0.00 0.00
5:51 am 05:51 Mostly Clear 67 19.4 53 11.7 61 61 E 9 15 29.68 1005 10 16 0.00 0.00
6:51 am 06:51 Sunny 67 19.4 54 12.2 63 63 E 8 13 29.70 1006 10 16 0.00 0.00
7:51 am 07:51 Mostly Sunny 70 21.1 54 12.2 57 57 E 8 13 29.72 1006 10 16 0.00 0.00
8:51 am 08:51 Sunny 75 23.9 53 11.7 46 46 ESE 10 17 29.73 1007 10 16 0.00 0.00
9:51 am 09:51 Partly Cloudy 79 26.1 55 12.8 44 44 ESE 13 20 29.72 1007 10 16 0.00 0.00
10:51 am 10:51 Cloudy 80 26.7 55 12.8 42 42 SE 14 22 29.71 1006 10 16 0.00 0.00
11:51 am 11:51 Mostly Cloudy 81 27.2 54 12.2 39 39 SSE 12 19 29.68 1005 10 16 0.00 0.00
12:51 pm 12:51 Partly Cloudy 83 28.3 53 11.7 36 36 SSE 15 24 29.65 1004 10 16 0.00 0.00
1:51 pm 13:51 Mostly Sunny 85 29.4 52 11.1 32 32 S 13 20 29.62 1003 10 16 0.00 0.00
2:29 pm 14:29 Partly Cloudy with Nearby Thunderstorms 85 29.4 52 11.1 32 32 SSE 18 30 29.53 1000 10 16 0.00 0.00
2:51 pm 14:51 Partly Cloudy with Nearby Thunderstorms 82 27.8 56 13.3 41 41 ESE 13 20 29.62 1003 10 16 0.00 0.00
3:02 pm 15:02 Mostly Sunny 84 28.9 57 13.9 40 40 ESE 14 22 29.53 1000 10 16 0.00 0.00
3:29 pm 15:29 Partly Cloudy with Nearby Thunderstorms 83 28.3 55 12.8 38 38 SSE 13 20 29.53 1000 10 16 0.00 0.00
3:37 pm 15:37 Mostly Cloudy with Thunderstorms 83 28.3 54 12.2 37 37 SE 14 22 29.53 1000 10 16 0.00 0.00
3:51 pm 15:51 Mostly Cloudy with Thunderstorms 82 27.8 54 12.2 38 38 ESE 12 19 29.61 1003 10 16 0.00 0.00
4:51 pm 16:51 Cloudy with Thunderstorms 71 21.7 61 16.1 71 71 VRB 6 9 29.67 1005 10 16 0.00 0.03
4:58 pm 16:58 Cloudy with Nearby Thunderstorms 71 21.7 61 16.1 71 71 VRB 6 9 29.65 1004 10 16 0.00 0.03
5:33 pm 17:33 Cloudy with Thunderstorms 71 21.7 64 17.8 79 79 N 8 13 29.65 1004 10 16 0.01 0.25
5:51 pm 17:51 Cloudy with Thunderstorms 70 21.1 64 17.8 82 82 WNW 15 24 29.67 1005 10 16 0.01 0.25
6:36 pm 18:36 Mostly Cloudy with Nearby Thunderstorms 71 21.7 62 16.7 73 73 W 5 7 29.68 1005 10 16 0.00 0.03
6:51 pm 18:51 Cloudy with Nearby Thunderstorms 72 22.2 62 16.7 71 71 ESE 3 6 29.69 1006 10 16 0.00 0.03
7:03 pm 19:03 Cloudy 72 22.2 62 16.7 71 71 E 7 11 29.68 1005 10 16 0.00 0.00
7:37 pm 19:37 Mostly Cloudy with Thunderstorms 75 23.9 58 14.4 55 55 SE 7 11 29.65 1004 10 16 0.00 0.00
7:51 pm 19:51 Mostly Cloudy with Nearby Thunderstorms 75 23.9 57 13.9 54 54 SE 15 24 29.70 1006 10 16 0.00 0.00
8:19 pm 20:19 Mostly Clear 74 23.3 58 14.4 57 57 SE 15 24 29.71 1006 10 16 0.00 0.00
8:51 pm 20:51 Mostly Cloudy 73 22.8 57 13.9 57 57 SE 10 17 29.73 1007 10 16 0.00 0.00
9:51 pm 21:51 Partly Cloudy 71 21.7 56 13.3 59 59 SE 12 19 29.75 1007 10 16 0.00 0.00
10:51 pm 22:51 Mostly Cloudy 71 21.7 56 13.3 59 59 SE 8 13 29.76 1008 10 16 0.00 0.00
11:51 pm 23:51 Cloudy 69 20.6 57 13.9 66 66 SSW 7 11 29.78 1008 10 16 0.00 0.00

Powered by AerisWeather